Regional Weather Roundup
Issued by NWS

Home | Current Version | Previous Version | Text Only | Print | Product List | Glossary Off
Versions: 1 2 3 4 5 6 7 8 9 10 11 12 13 14 15 16 17 18 19 20 21 22 23 24 25 26 27 28 29 30 31 32 33 34 35 36 37 38 39 40 41 42 43 44 45 46 47 48 49 50

000
ASUS43 KFSD 271102
RWRSD

WEATHER ROUNDUP FOR SOUTH DAKOTA
NATIONAL WEATHER SERVICE SIOUX FALLS SD
500 AM CST TUE JAN 27 2015

NOTE: "FAIR" INDICATES FEW OR NO CLOUDS BELOW 12,000 FEET WITH NO
SIGNIFICANT WEATHER AND/OR OBSTRUCTIONS TO VISIBILITY.


SDZ001>005-009-010-012>017-271200-
NORTHWEST AND NORTH CENTRAL SOUTH DAKOTA

CITY           SKY/WX    TMP DP  RH WIND       PRES   REMARKS
BUFFALO          N/A     40  29  64 SW6       29.85S
FAITH            N/A     35  28  75 S12       29.91S WCI  27
MOBRIDGE       CLEAR     33  29  85 SE10      29.91F WCI  25
$$

SDZ012>016-024>037-041>051-057-063-072>074-271200-
SOUTHWEST AND SOUTH CENTRAL SOUTH DAKOTA

CITY           SKY/WX    TMP DP  RH WIND       PRES   REMARKS
RAPID CTY ARPT CLEAR     43  25  49 CALM      29.94F
PIERRE         CLEAR     30  27  88 SE8       29.94S WCI  22
CUSTER         CLEAR     47  24  40 W8        30.06S
ELLSWORTH AFB  CLEAR     40  26  57 W7        29.94S
PHILIP         CLEAR     29  26  89 CALM      29.93S
PINE RIDGE     CLEAR     36  26  67 W5        30.01F
WINNER         FAIR      39  31  72 SE6       29.95F
$$

SDZ004>011-016>023-039-040-271200-
NORTHEAST SOUTH DAKOTA

CITY           SKY/WX    TMP DP  RH WIND       PRES   REMARKS
ABERDEEN       CLEAR     27  25  92 CALM      30.02F
WATERTOWN      MOCLDY    27  24  89 CALM      30.02R FOG
SISSETON         N/A     28  28 100 S6        30.04S WCI  22
$$

SDZ017-020-022-023-036>040-048>070-271200-
SOUTHEAST SOUTH DAKOTA

CITY           SKY/WX    TMP DP  RH WIND       PRES   REMARKS
SIOUX FALLS    CLEAR     26  23  88 CALM      30.04S
HURON          CLEAR     26  25  96 E6        30.02S WCI  19
MITCHELL       CLEAR     28  26  92 E5        30.04S WCI  23
YANKTON        CLEAR     28  27  93 CALM      30.06S VSB 1
$$

ABBREVIATIONS USED IN REMARKS
   TC - TEMPERATURE IN CELSIUS
  WCI - WIND CHILL INDEX
   HX - HEAT INDEX
  VSB - VISIBILITY




USA.gov is the U.S. government's official web portal to all federal, state and local government web resources and services.